Location: Alsip
(41.6689°N, 87.7387°W)
Time: 14:23:13
(UTC+00:00)

USA 267 - Pass Details

Date: 14 July 2020
Orbit: 1102 x 1106 km, 123.0° (Epoch: 02 August)

Event Time Altitude Azimuth Distance (km) Brightness Sun altitude
Exits shadow 07:41:26 24° 256° (WSW) 2,105 4.4 -22.3°
Drops below altitude 10° 07:45:15 10° 290° (WNW) 2,961 5.4 -22.0°
Sets 07:48:14 0° 303° (WNW) 3,923 6.2 -21.7°
